When you browse on this site, cookies collect data to enhance your experience and personalize the content and advertising you see.
Visit our Privacy Policy to learn more. By continuing to use the site, you agree to this use of cookies and data.
  • In Romania
  • List of Countries
  • For 7 days
  • Water Temperature
  • Satellite Maps
  • Weather Map
  • Weather Widgets
  • user-avatar
    Login

    Hourly Weather Solden

    Today, 19 June, Wednesday

    Time Temperature Precipitation Wind Pressure Humidity
    00:00 +7°C° 0.4 mm 1 mps 584 mmHg 90%
    01:00 +7°C° 0 mm 1 mps 584 mmHg 87%
    02:00 +7°C° 0.3 mm 1 mps 584 mmHg 88%
    03:00 +7°C° 0.3 mm 1 mps 583 mmHg 88%
    04:00 +7°C° 0.3 mm 1 mps 583 mmHg 88%
    05:00 +7°C° 0.1 mm 0 mps 584 mmHg 87%
    06:00 +8°C° 0.1 mm 0 mps 584 mmHg 85%
    07:00 +10°C° 0 mm 0 mps 585 mmHg 84%
    08:00 +11°C° 0.7 mm 0 mps 585 mmHg 79%
    09:00 +13°C° 0.7 mm 1 mps 586 mmHg 75%
    10:00 +14°C° 0.7 mm 1 mps 586 mmHg 70%
    11:00 +15°C° 0.8 mm 1 mps 586 mmHg 66%
    12:00 +16°C° 0.8 mm 1 mps 587 mmHg 62%
    13:00 +18°C° 0.8 mm 1 mps 587 mmHg 57%
    14:00 +16°C° 0.9 mm 1 mps 587 mmHg 59%
    15:00 +16°C° 0.9 mm 1 mps 586 mmHg 61%
    16:00 +16°C° 0.9 mm 1 mps 586 mmHg 63%
    17:00 +14°C° 1.1 mm 1 mps 585 mmHg 69%
    18:00 +13°C° 1.1 mm 1 mps 585 mmHg 76%
    19:00 +11°C° 1.1 mm 0 mps 584 mmHg 83%
    20:00 +11°C° 0.7 mm 1 mps 584 mmHg 84%
    21:00 +9°C° 0.7 mm 1 mps 584 mmHg 86%
    22:00 +8°C° 0.7 mm 1 mps 583 mmHg 87%
    23:00 +7°C° 0.4 mm 1 mps 583 mmHg 88%

    Tomorrow, 20 June, Thursday

    Time Temperature Precipitation Wind Pressure Humidity
    00:00 +7°C° 0.4 mm 1 mps 583 mmHg 88%
    01:00 +7°C° 0.4 mm 1 mps 583 mmHg 89%
    02:00 +7°C° 0.2 mm 1 mps 583 mmHg 89%
    03:00 +6°C° 0.2 mm 1 mps 582 mmHg 89%
    04:00 +6°C° 0.2 mm 1 mps 582 mmHg 89%
    05:00 +6°C° 0.1 mm 0 mps 583 mmHg 86%
    06:00 +8°C° 0.1 mm 0 mps 584 mmHg 84%
    07:00 +10°C° 0.1 mm 0 mps 585 mmHg 81%
    08:00 +12°C° 0.5 mm 1 mps 585 mmHg 79%
    09:00 +13°C° 0.5 mm 1 mps 585 mmHg 77%
    10:00 +14°C° 0.5 mm 1 mps 586 mmHg 75%
    11:00 +14°C° 1 mm 2 mps 586 mmHg 73%
    12:00 +14°C° 1 mm 2 mps 586 mmHg 70%
    13:00 +15°C° 1 mm 2 mps 586 mmHg 68%
    14:00 +14°C° 1 mm 1 mps 586 mmHg 69%
    15:00 +14°C° 1 mm 1 mps 586 mmHg 71%
    16:00 +14°C° 1 mm 1 mps 586 mmHg 72%
    17:00 +13°C° 0.9 mm 1 mps 586 mmHg 76%
    18:00 +11°C° 0.9 mm 0 mps 585 mmHg 81%
    19:00 +11°C° 0.9 mm 0 mps 585 mmHg 85%
    20:00 +9°C° 0.4 mm 0 mps 585 mmHg 87%
    21:00 +9°C° 0.4 mm 1 mps 584 mmHg 88%
    22:00 +8°C° 0.4 mm 1 mps 584 mmHg 90%
    23:00 +8°C° 0.1 mm 1 mps 584 mmHg 90%

    Day after tomorrow, 21 June, Friday

    Time Temperature Precipitation Wind Pressure Humidity
    00:00 +8°C° 0.1 mm 1 mps 584 mmHg 90%
    01:00 +8°C° 0.1 mm 1 mps 584 mmHg 90%
    02:00 +8°C° 0 mm 1 mps 584 mmHg 89%
    03:00 +7°C° 0 mm 1 mps 584 mmHg 89%
    04:00 +7°C° 0 mm 1 mps 584 mmHg 89%
    05:00 +7°C° 0 mm 0 mps 584 mmHg 87%
    06:00 +8°C° 0 mm 0 mps 585 mmHg 85%
    07:00 +9°C° 0 mm 0 mps 585 mmHg 83%
    08:00 +10°C° 0.3 mm 0 mps 586 mmHg 78%
    09:00 +12°C° 0.3 mm 1 mps 587 mmHg 73%
    10:00 +14°C° 0.3 mm 1 mps 587 mmHg 67%
    11:00 +14°C° 1 mm 1 mps 587 mmHg 70%
    12:00 +14°C° 1 mm 1 mps 587 mmHg 72%
    13:00 +14°C° 1 mm 1 mps 587 mmHg 74%
    14:00 +14°C° 1.4 mm 1 mps 587 mmHg 77%
    15:00 +13°C° 1.4 mm 1 mps 587 mmHg 80%
    16:00 +13°C° 1.4 mm 1 mps 586 mmHg 83%
    17:00 +12°C° 1 mm 1 mps 586 mmHg 86%
    18:00 +10°C° 1 mm 0 mps 585 mmHg 89%
    19:00 +9°C° 1 mm 0 mps 585 mmHg 92%
    20:00 +9°C° 1 mm 1 mps 585 mmHg 93%
    21:00 +9°C° 1 mm 1 mps 585 mmHg 93%
    22:00 +8°C° 1 mm 1 mps 585 mmHg 93%
    23:00 +8°C° 0.6 mm 1 mps 585 mmHg 93%

    22 June, Saturday

    Time Temperature Precipitation Wind Pressure Humidity
    00:00 +7°C° 0.6 mm 1 mps 584 mmHg 94%
    01:00 +7°C° 0.6 mm 1 mps 584 mmHg 94%
    02:00 +7°C° 0.4 mm 1 mps 584 mmHg 94%
    03:00 +6°C° 0.4 mm 0 mps 584 mmHg 94%
    04:00 +6°C° 0.4 mm 0 mps 583 mmHg 94%
    05:00 +6°C° 0.4 mm 0 mps 584 mmHg 94%
    06:00 +7°C° 0.4 mm 0 mps 584 mmHg 94%
    07:00 +7°C° 0.4 mm 0 mps 584 mmHg 94%
    08:00 +8°C° 0.5 mm 0 mps 584 mmHg 91%
    09:00 +9°C° 0.5 mm 1 mps 585 mmHg 89%
    10:00 +10°C° 0.5 mm 1 mps 585 mmHg 86%
    11:00 +11°C° 0.5 mm 1 mps 585 mmHg 83%
    12:00 +11°C° 0.5 mm 1 mps 585 mmHg 80%
    13:00 +12°C° 0.5 mm 1 mps 586 mmHg 77%
    14:00 +11°C° 1.2 mm 1 mps 585 mmHg 82%
    15:00 +10°C° 1.2 mm 1 mps 585 mmHg 87%
    16:00 +9°C° 1.2 mm 1 mps 584 mmHg 92%
    17:00 +9°C° 0.4 mm 1 mps 584 mmHg 91%
    18:00 +9°C° 0.4 mm 1 mps 584 mmHg 91%
    19:00 +9°C° 0.4 mm 1 mps 584 mmHg 90%
    20:00 +8°C° 0 mm 1 mps 584 mmHg 90%
    21:00 +6°C° 0 mm 2 mps 583 mmHg 90%
    22:00 +5°C° 0 mm 2 mps 583 mmHg 90%
    23:00 +5°C° 0 mm 2 mps 583 mmHg 90%

    23 June, Sunday

    Time Temperature Precipitation Wind Pressure Humidity
    00:00 +4°C° 0 mm 2 mps 583 mmHg 90%
    01:00 +4°C° 0 mm 2 mps 583 mmHg 89%
    02:00 +6°C° 0 mm 1 mps 584 mmHg 92%
    03:00 +5°C° 0 mm 1 mps 583 mmHg 92%
    04:00 +5°C° 0 mm 1 mps 583 mmHg 92%
    05:00 +6°C° 0 mm 1 mps 584 mmHg 88%
    06:00 +7°C° 0 mm 0 mps 585 mmHg 84%
    07:00 +9°C° 0 mm 0 mps 586 mmHg 80%
    08:00 +11°C° 0 mm 0 mps 587 mmHg 71%
    09:00 +14°C° 0 mm 1 mps 588 mmHg 62%
    10:00 +16°C° 0 mm 1 mps 589 mmHg 53%
    11:00 +18°C° 0 mm 1 mps 589 mmHg 50%
    12:00 +17°C° 0 mm 2 mps 590 mmHg 46%
    13:00 +18°C° 0 mm 2 mps 590 mmHg 43%
    14:00 +18°C° 0.1 mm 2 mps 590 mmHg 44%
    15:00 +18°C° 0.1 mm 2 mps 590 mmHg 45%
    16:00 +18°C° 0.1 mm 2 mps 590 mmHg 47%
    17:00 +18°C° 0.2 mm 1 mps 589 mmHg 58%
    18:00 +15°C° 0.2 mm 1 mps 589 mmHg 69%
    19:00 +14°C° 0.2 mm 1 mps 588 mmHg 80%
    20:00 +12°C° 0.1 mm 1 mps 588 mmHg 83%
    21:00 +11°C° 0.1 mm 1 mps 588 mmHg 87%
    22:00 +9°C° 0.1 mm 1 mps 587 mmHg 90%
    23:00 +9°C° 0 mm 1 mps 587 mmHg 90%

    24 June, Monday

    Time Temperature Precipitation Wind Pressure Humidity
    00:00 +8°C° 0 mm 1 mps 587 mmHg 90%
    01:00 +8°C° 0 mm 1 mps 587 mmHg 90%
    02:00 +8°C° 0 mm 1 mps 587 mmHg 89%
    03:00 +8°C° 0 mm 1 mps 587 mmHg 88%
    04:00 +7°C° 0 mm 1 mps 587 mmHg 87%
    05:00 +9°C° 0 mm 1 mps 588 mmHg 81%
    06:00 +10°C° 0 mm 0 mps 589 mmHg 75%
    07:00 +12°C° 0 mm 0 mps 590 mmHg 69%
    08:00 +14°C° 0 mm 0 mps 591 mmHg 61%
    09:00 +18°C° 0 mm 1 mps 592 mmHg 53%
    10:00 +20°C° 0 mm 1 mps 593 mmHg 46%
    11:00 +21°C° 0 mm 1 mps 593 mmHg 44%
    12:00 +22°C° 0 mm 1 mps 594 mmHg 41%
    13:00 +23°C° 0 mm 1 mps 594 mmHg 39%
    14:00 +23°C° 0.1 mm 1 mps 594 mmHg 40%
    15:00 +23°C° 0.1 mm 1 mps 594 mmHg 40%
    16:00 +23°C° 0.1 mm 1 mps 594 mmHg 41%
    17:00 +22°C° 0.1 mm 1 mps 593 mmHg 53%
    18:00 +20°C° 0.1 mm 1 mps 593 mmHg 64%
    19:00 +18°C° 0.1 mm 1 mps 592 mmHg 76%
    20:00 +16°C° 0 mm 1 mps 592 mmHg 80%
    21:00 +14°C° 0 mm 1 mps 591 mmHg 84%
    22:00 +11°C° 0 mm 0 mps 591 mmHg 89%
    23:00 +12°C° 0 mm 1 mps 591 mmHg 86%
    Show more